Location: Hylvaty SDH
(49.9612°N, 16.4057°E)
Time: 12:08:06
(UTC+01:00)

A-11 Canister half - Pass Details

Date: 10 October 2020
Orbit: 1526 x 1683 km, 47.3° (Epoch: 28 October)

Event Time Altitude Azimuth Distance (km) Brightness Sun altitude
Rises 03:17:02 0° 288° (WNW) 4,702 - -36.0°
Reaches altitude 10° 03:20:37 10° 277° (W) 3,731 - -35.5°
Maximum altitude 03:28:04 27° 225° (SW) 2,648 - -34.6°
Drops below altitude 10° 03:35:42 10° 172° (S) 3,811 - -33.6°
Exits shadow 03:38:02 - 164° (SSE) 4,430 11.2 -33.3°
Sets 03:39:26 0° 161° (SSE) 4,819 11.5 -33.1°
